TimeCDT,TemperatureF,Dew PointF,Humidity,Sea Level PressureIn,VisibilityMPH,Wind Direction,Wind SpeedMPH,Gust SpeedMPH,PrecipitationIn,Events,Conditions,WindDirDegrees,DateUTC
12:15 AM,74.8,56.3,52,29.71,10.0,South,8.1,-,N/A,,Clear,170,2014-05-07 05:15:00
12:35 AM,73.8,56.5,55,29.71,10.0,South,8.1,-,N/A,,Clear,190,2014-05-07 05:35:00
12:55 AM,73.4,56.7,56,29.71,10.0,South,8.1,-,N/A,,Clear,180,2014-05-07 05:55:00
1:15 AM,72.7,56.8,57,29.72,10.0,South,6.9,-,N/A,,Clear,180,2014-05-07 06:15:00
1:35 AM,71.8,57.2,60,29.71,10.0,South,8.1,-,N/A,,Clear,170,2014-05-07 06:35:00
1:55 AM,71.6,57.4,61,29.71,10.0,South,6.9,-,N/A,,Clear,170,2014-05-07 06:55:00
2:15 AM,71.6,57.4,61,29.72,10.0,South,4.6,-,N/A,,Clear,190,2014-05-07 07:15:00
2:35 AM,70.5,57.6,63,29.72,10.0,South,5.8,-,N/A,,Clear,180,2014-05-07 07:35:00
2:55 AM,69.6,57.4,65,29.72,10.0,South,4.6,-,N/A,,Clear,180,2014-05-07 07:55:00
3:15 AM,69.8,57.4,65,29.72,10.0,SSE,6.9,-,N/A,,Clear,160,2014-05-07 08:15:00
3:35 AM,69.4,57.2,65,29.72,10.0,SE,4.6,-,N/A,,Clear,140,2014-05-07 08:35:00
3:55 AM,68.9,57.2,66,29.72,10.0,SE,4.6,-,N/A,,Clear,140,2014-05-07 08:55:00
4:15 AM,68.0,56.8,67,29.73,10.0,NNW,5.8,-,N/A,,Clear,340,2014-05-07 09:15:00
4:35 AM,66.9,56.7,70,29.73,10.0,SSE,5.8,-,N/A,,Clear,160,2014-05-07 09:35:00
4:55 AM,66.7,56.5,70,29.74,10.0,SSE,6.9,-,N/A,,Clear,160,2014-05-07 09:55:00
5:15 AM,66.4,56.3,70,29.75,10.0,SSE,4.6,-,N/A,,Clear,160,2014-05-07 10:15:00
5:35 AM,65.5,56.3,72,29.75,10.0,SSE,6.9,-,N/A,,Clear,150,2014-05-07 10:35:00
5:55 AM,65.1,56.3,73,29.76,10.0,SSE,8.1,-,N/A,,Clear,150,2014-05-07 10:55:00
6:15 AM,65.3,56.3,73,29.77,10.0,SSE,8.1,-,N/A,,Clear,150,2014-05-07 11:15:00
6:35 AM,65.7,56.5,72,29.77,10.0,SSE,6.9,-,N/A,,Clear,160,2014-05-07 11:35:00
6:55 AM,66.2,56.7,71,29.77,10.0,South,6.9,-,N/A,,Clear,170,2014-05-07 11:55:00
7:15 AM,66.4,57.2,72,29.78,10.0,SSE,6.9,-,N/A,,Clear,150,2014-05-07 12:15:00
7:35 AM,67.1,57.6,71,29.77,10.0,SE,4.6,-,N/A,,Clear,130,2014-05-07 12:35:00
7:55 AM,68.2,57.7,69,29.78,10.0,SSE,8.1,-,N/A,,Clear,150,2014-05-07 12:55:00
8:15 AM,68.9,58.1,68,29.78,10.0,SE,8.1,-,N/A,,Clear,140,2014-05-07 13:15:00
8:35 AM,71.1,59.0,66,29.78,10.0,SSE,9.2,-,N/A,,Clear,150,2014-05-07 13:35:00
8:55 AM,73.4,59.5,62,29.78,10.0,South,12.7,16.1,N/A,,Clear,170,2014-05-07 13:55:00
9:15 AM,74.8,59.0,58,29.78,10.0,South,12.7,18.4,N/A,,Clear,170,2014-05-07 14:15:00
9:35 AM,75.7,59.5,57,29.78,10.0,South,12.7,-,N/A,,Clear,180,2014-05-07 14:35:00
9:55 AM,75.2,59.2,57,29.78,10.0,South,16.1,-,N/A,,Clear,180,2014-05-07 14:55:00
10:15 AM,75.9,59.7,57,29.79,10.0,South,17.3,24.2,N/A,,Clear,180,2014-05-07 15:15:00
10:35 AM,75.7,60.1,58,29.79,10.0,South,12.7,23.0,N/A,,Clear,180,2014-05-07 15:35:00
10:55 AM,75.7,59.9,58,29.80,10.0,South,15.0,20.7,N/A,,Clear,170,2014-05-07 15:55:00
11:15 AM,75.4,59.9,58,29.80,10.0,SSE,13.8,19.6,N/A,,Clear,160,2014-05-07 16:15:00
11:35 AM,75.4,60.3,59,29.78,10.0,SSE,10.4,-,N/A,,Clear,160,2014-05-07 16:35:00
11:55 AM,77.5,60.3,55,29.78,10.0,South,13.8,21.9,N/A,,Clear,170,2014-05-07 16:55:00
12:15 PM,77.9,60.1,54,29.78,10.0,SSE,15.0,26.5,N/A,,Clear,160,2014-05-07 17:15:00
12:35 PM,79.5,59.5,50,29.77,10.0,SSE,15.0,23.0,N/A,,Clear,160,2014-05-07 17:35:00
12:55 PM,79.9,59.2,49,29.76,10.0,SE,12.7,17.3,N/A,,Clear,140,2014-05-07 17:55:00
1:15 PM,81.5,57.9,44,29.76,10.0,South,12.7,16.1,N/A,,Clear,180,2014-05-07 18:15:00
1:35 PM,82.2,57.9,43,29.78,10.0,South,10.4,-,N/A,,Clear,180,2014-05-07 18:35:00
1:55 PM,83.7,57.7,41,29.77,10.0,SSE,16.1,20.7,N/A,,Clear,160,2014-05-07 18:55:00
2:15 PM,84.0,57.2,40,29.76,10.0,SE,16.1,21.9,N/A,,Clear,140,2014-05-07 19:15:00
2:35 PM,84.4,57.7,40,29.76,10.0,SSE,13.8,-,N/A,,Clear,150,2014-05-07 19:35:00
2:55 PM,84.0,57.2,40,29.76,10.0,SSE,13.8,17.3,N/A,,Clear,160,2014-05-07 19:55:00
3:15 PM,84.6,58.1,40,29.75,10.0,SSE,15.0,20.7,N/A,,Clear,150,2014-05-07 20:15:00
3:35 PM,84.2,59.0,42,29.75,10.0,SSE,15.0,19.6,N/A,,Clear,160,2014-05-07 20:35:00
3:55 PM,83.5,56.8,40,29.75,10.0,South,17.3,24.2,N/A,,Clear,180,2014-05-07 20:55:00
4:15 PM,83.5,58.1,42,29.75,10.0,SSE,17.3,21.9,N/A,,Clear,160,2014-05-07 21:15:00
4:35 PM,83.1,59.4,44,29.75,10.0,SSE,16.1,21.9,N/A,,Clear,160,2014-05-07 21:35:00
4:55 PM,83.3,59.4,44,29.75,10.0,SSE,16.1,19.6,N/A,,Clear,160,2014-05-07 21:55:00
5:15 PM,83.3,59.7,45,29.75,10.0,South,12.7,23.0,N/A,,Clear,170,2014-05-07 22:15:00
5:35 PM,83.3,60.4,46,29.75,10.0,SSE,13.8,18.4,N/A,,Clear,160,2014-05-07 22:35:00
5:55 PM,83.3,61.3,47,29.75,10.0,South,9.2,21.9,N/A,,Clear,170,2014-05-07 22:55:00
6:15 PM,83.8,61.7,47,29.75,10.0,South,16.1,-,N/A,,Clear,170,2014-05-07 23:15:00
6:35 PM,83.7,61.5,47,29.75,10.0,South,13.8,-,N/A,,Clear,170,2014-05-07 23:35:00
6:55 PM,83.3,61.2,47,29.75,10.0,South,13.8,17.3,N/A,,Clear,170,2014-05-07 23:55:00
7:15 PM,82.4,60.4,47,29.75,10.0,SSE,11.5,-,N/A,,Clear,160,2014-05-08 00:15:00
7:35 PM,81.5,60.3,48,29.75,10.0,South,12.7,17.3,N/A,,Clear,170,2014-05-08 00:35:00
7:55 PM,80.8,60.3,49,29.75,10.0,SSE,11.5,16.1,N/A,,Clear,160,2014-05-08 00:55:00
8:15 PM,80.1,59.9,50,29.76,10.0,SSE,10.4,16.1,N/A,,Clear,160,2014-05-08 01:15:00
8:35 PM,79.0,59.9,52,29.76,10.0,SSE,11.5,-,N/A,,Clear,160,2014-05-08 01:35:00
8:55 PM,78.4,59.9,53,29.77,10.0,South,11.5,16.1,N/A,,Clear,170,2014-05-08 01:55:00
9:15 PM,78.4,60.1,53,29.78,10.0,South,10.4,17.3,N/A,,Clear,180,2014-05-08 02:15:00
9:35 PM,78.3,60.8,55,29.78,10.0,South,12.7,18.4,N/A,,Clear,180,2014-05-08 02:35:00
9:55 PM,77.2,60.8,57,29.78,10.0,South,9.2,17.3,N/A,,Clear,180,2014-05-08 02:55:00
10:15 PM,77.0,61.0,58,29.78,10.0,South,13.8,18.4,N/A,,Clear,180,2014-05-08 03:15:00
10:35 PM,76.8,61.5,59,29.79,10.0,South,12.7,19.6,N/A,,Clear,180,2014-05-08 03:35:00
10:55 PM,76.5,61.7,60,29.79,10.0,South,12.7,21.9,N/A,,Clear,180,2014-05-08 03:55:00
11:15 PM,76.1,61.7,61,29.79,10.0,South,11.5,17.3,N/A,,Clear,180,2014-05-08 04:15:00
11:35 PM,75.2,61.7,63,29.80,10.0,South,11.5,18.4,N/A,,Clear,180,2014-05-08 04:35:00
11:55 PM,74.8,61.7,64,29.80,10.0,South,12.7,18.4,N/A,,Clear,190,2014-05-08 04:55:00